[[{"header":{"parameterUnit":"m.s-1","parameterCategory":1,"la1":30.2991,"la2":30.254,"lo1":-89.0895,"lo2":-89.0444,"dy":0.0017,"dx":0.0017,"nx":28,"ny":28,"refTime":"2024-03-10T21:00:00:Z","depth":0,"parameterNumber":2,"parameterNumberName":"U-component_of_WINDS"},"data":[0,0,0,0,0,0,0,0,0,0,0,0,0,0,0,0,0,0,0,0,0,0,0,0,0,0,0,0,0,0,0,0,0,0,0,0,0,0,0,0,0,0,0,0,0,0,0,0,0,0,0,0,0,0,0,0,0,0,-1.5265,-1.5265,0,-1.5256,-1.5256,-1.5256,-1.52,-1.5199,-1.5197,-1.5196,-1.5187,-1.5188,-1.5189,0,0,0,0,0,0,0,0,0,0,0,0,0,-1.5234,-1.5235,-1.5265,-1.5265,-1.5265,-1.5256,-1.5256,-1.5256,-1.52,-1.5199,-1.5197,-1.5195,-1.5187,-1.5188,-1.5189,0,0,0,0,0,0,0,0,0,0,0,0,0,-1.5239,-1.5235,-1.5265,-1.5236,-1.5233,-1.5256,-1.5256,-1.5256,-1.5201,-1.5199,-1.5197,-1.5195,-1.5186,-1.5188,-1.5189,-1.5239,0,0,-1.5194,-1.5195,0,0,0,0,0,0,0,0,-1.5239,-1.524,-1.5241,-1.5238,-1.5235,-1.5227,-1.5242,-1.5251,-1.5201,-1.5213,-1.5196,-1.5194,-1.5202,-1.5202,-1.5205,-1.5239,-1.5239,-1.5194,-1.5195,-1.5196,-1.5196,0,0,0,0,0,0,0,-1.5238,-1.524,-1.5262,-1.5241,-1.5237,-1.5224,-1.5222,-1.5243,-1.5219,-1.5212,-1.5208,-1.5208,-1.52,-1.5204,-1.5204,-1.5239,-1.5194,-1.5195,-1.5196,-1.5197,-1.5314,-1.5316,0,0,0,0,0,0,-1.5242,-1.524,-1.5262,-1.5261,-1.5232,-1.5226,-1.5224,-1.5232,-1.5219,-1.5215,-1.5209,-1.5205,-1.5202,-1.5203,-1.5204,-1.5262,-1.5196,-1.5197,-1.5198,-1.5312,-1.5314,-1.5317,0,0,0,0,0,0,-1.5242,-1.5245,-1.5262,-1.525,-1.5251,-1.5229,-1.5238,-1.5233,-1.5236,-1.5217,-1.5212,-1.5217,-1.52,-1.5202,-1.5231,-1.5261,-1.5198,-1.5199,-1.5309,-1.5312,-1.5315,-1.5379,0,0,0,0,0,0,-1.5241,-1.5245,-1.5264,-1.5251,-1.5252,-1.529,-1.524,-1.5234,-1.5239,-1.5233,-1.5223,-1.5219,-1.5199,-1.5229,-1.5233,-1.5262,-1.52,-1.5306,-1.5311,-1.5314,-1.5374,-1.5384,-1.5392,0,0,0,0,0,-1.524,-1.5282,-1.5265,-1.5268,-1.5275,-1.5292,-1.5292,-1.5268,-1.5242,-1.526,-1.5248,-1.522,-1.5257,-1.5233,-1.5236,-1.5266,-1.5304,-1.5309,-1.5314,-1.537,-1.5382,-1.5392,0,0,0,0,0,0,-1.5298,-1.5279,-1.526,-1.5299,-1.5298,-1.5282,-1.5305,-1.5282,-1.5288,-1.5282,-1.5251,-1.525,-1.5284,-1.5278,-1.5251,-1.5314,-1.5276,-1.5282,-1.5317,-1.5328,-1.5337,-1.5338,-1.5202,0,0,0,0,0,-1.5316,-1.5331,-1.5314,-1.5349,-1.5349,-1.5328,-1.5334,-1.5316,-1.5313,-1.5312,-1.5301,-1.53,-1.5311,-1.5319,-1.5329,-1.5373,-1.537,-1.5395,-1.5404,-1.5412,-1.5417,-1.544,-1.5452,-1.5333,-1.5333,-1.5333,0,0,-1.5352,-1.5343,-1.5355,-1.5361,-1.5357,-1.5374,-1.5327,-1.5347,-1.5359,-1.5315,-1.5342,-1.5335,-1.5331,-1.5368,-1.5384,-1.5364,-1.545,-1.5418,-1.5424,-1.5426,-1.5447,-1.5458,-1.5468,-1.5336,-1.5336,-1.5335,0,0,-1.5426,-1.5421,-1.545,-1.5448,-1.5443,-1.5429,-1.5436,-1.5425,-1.5418,-1.5445,-1.5412,-1.5426,-1.5446,-1.5445,-1.5447,-1.5522,-1.5496,-1.5526,-1.5573,-1.5596,-1.5606,-1.5614,-1.564,-1.565,-1.5531,-1.5531,-1.5531,0,-1.5471,-1.5495,-1.5468,-1.549,-1.5494,-1.5455,-1.5484,-1.5483,-1.5482,-1.5486,-1.5464,-1.5489,-1.5483,-1.552,-1.5538,-1.5541,-1.5548,-1.5526,-1.5606,-1.5614,-1.5622,-1.5647,-1.5657,-1.5535,-1.5534,-1.5534,-1.5534,0,-1.555,-1.5568,-1.5592,-1.5592,-1.5599,-1.5624,-1.5602,-1.5612,-1.5593,-1.5581,-1.5609,-1.5601,-1.5609,-1.5616,-1.5597,-1.565,-1.5638,-1.5612,-1.5572,-1.5637,-1.566,-1.5669,-1.554,-1.5539,-1.5538,-1.5537,0,0,-1.566,-1.5646,-1.5655,-1.5655,-1.5648,-1.5661,-1.5685,-1.5692,-1.5701,-1.5702,-1.5722,-1.574,-1.5716,-1.5718,-1.57,-1.572,-1.578,-1.5691,-1.569,-1.5708,-1.5837,-1.5857,-1.5869,-1.5763,-1.5764,-1.5766,-1.5838,0,-1.5731,-1.5772,-1.5749,-1.5792,-1.5808,-1.5772,-1.5793,-1.5791,-1.578,-1.5792,-1.578,-1.5794,-1.5761,-1.5762,-1.578,-1.5769,-1.5805,-1.5763,-1.5781,-1.5782,-1.5783,-1.5881,-1.5901,-1.5969,-1.5846,-1.5848,-1.5849,0,-1.5819,-1.5824,-1.587,-1.586,-1.5865,-1.5885,-1.589,-1.5902,-1.5899,-1.589,-1.5893,-1.5869,-1.5893,-1.5854,-1.5886,-1.5858,-1.5864,-1.5859,-1.5861,-1.5862,-1.5819,-1.5884,-1.5991,-1.6001,-1.5863,-1.5862,-1.5861,0,-1.5895,-1.5913,-1.5942,-1.5943,-1.5933,-1.5947,-1.5944,-1.5939,-1.5945,-1.5949,-1.5953,-1.596,-1.5964,-1.5971,-1.595,-1.5924,-1.5984,-1.5944,-1.5978,-1.5978,-1.5992,-1.5991,-1.6101,-1.5996,-1.5996,-1.5996,-1.5995,0,-1.5976,-1.6006,-1.5976,-1.5995,-1.6026,-1.6,-1.6032,-1.6024,-1.6021,-1.6037,-1.6006,-1.6022,-1.5993,-1.6006,-1.599,-1.6019,-1.6021,-1.6015,-1.601,-1.6017,-1.6018,-1.6021,-1.6015,-1.5998,-1.5998,-1.5997,-1.5997,0,-1.6066,-1.6048,-1.6077,-1.6065,-1.6063,-1.6087,-1.6076,-1.6093,-1.608,-1.6101,-1.6105,-1.6085,-1.6099,-1.6079,-1.6091,-1.608,-1.612,-1.6108,-1.6121,-1.6117,-1.6152,-1.6149,-1.6267,-1.6281,-1.6167,-1.6169,-1.6169,0,-1.6119,-1.6141,-1.6131,-1.614,-1.6138,-1.6152,-1.6158,-1.6134,-1.6141,-1.614,-1.6157,-1.6168,-1.6176,-1.62,-1.6187,-1.6196,-1.6184,-1.6225,-1.6185,-1.6192,-1.6185,-1.6184,-1.6186,-1.6233,-1.6234,-1.6235,-1.6236,0,-1.6216,-1.6206,-1.6216,-1.6223,-1.6231,-1.6236,-1.6238,-1.6247,-1.6221,-1.6231,-1.6245,-1.6251,-1.6263,-1.6275,-1.6281,-1.6277,-1.6253,-1.6249,-1.6257,-1.6265,-1.6271,-1.6268,-1.6143,-1.6246,-1.6245,-1.6244,-1.6244,-1.6243,-1.6288,-1.6306,-1.6302,-1.6315,-1.6314,-1.6317,-1.6332,-1.6322,-1.6333,-1.6341,-1.6326,-1.6344,-1.6341,-1.6346,-1.6345,-1.6358,-1.6341,-1.6353,-1.6355,-1.6359,-1.6364,-1.6269,-1.6359,-1.6359,-1.6359,-1.6359,-1.6358,0,-1.6383,-1.6379,-1.6391,-1.6395,-1.6405,-1.6382,-1.6383,-1.6393,-1.6409,-1.6408,-1.6417,-1.6433,-1.6445,-1.6433,-1.6442,-1.6455,-1.6444,-1.6459,-1.6457,-1.6457,-1.638,-1.6372,-1.6467,-1.6467,-1.6467,-1.6467,-1.6467,-1.6467,-1.6434,-1.6462,-1.6452,-1.6481,-1.6476,-1.6494,-1.6496,-1.6499,-1.6499,-1.6518,-1.6528,-1.652,-1.6515,-1.6524,-1.6533,-1.653,-1.6534,-1.6553,-1.6545,-1.6473,-1.6462,-1.6452,-1.6444,-1.6554,-1.6554,-1.6621,-1.6622,-1.6622]},{"header":{"parameterUnit":"m.s-1","parameterCategory":1,"la1":30.2991,"la2":30.254,"lo1":-89.0895,"lo2":-89.0444,"dy":0.0017,"dx":0.0017,"nx":28,"ny":28,"refTime":"2024-03-10T21:00:00:Z","depth":0,"parameterNumber":3,"parameterNumberName":"V-component_of_WINDS"},"data":[0,0,0,0,0,0,0,0,0,0,0,0,0,0,0,0,0,0,0,0,0,0,0,0,0,0,0,0,0,0,0,0,0,0,0,0,0,0,0,0,0,0,0,0,0,0,0,0,0,0,0,0,0,0,0,0,0,0,-0.9603,-0.9604,0,-0.9699,-0.97,-0.9702,-0.9796,-0.9797,-0.9798,-0.9799,-0.9898,-0.99,-0.9901,0,0,0,0,0,0,0,0,0,0,0,0,0,-0.9499,-0.95,-0.9602,-0.9604,-0.9605,-0.9699,-0.9701,-0.9702,-0.9796,-0.9797,-0.9799,-0.98,-0.9898,-0.99,-0.9901,0,0,0,0,0,0,0,0,0,0,0,0,0,-0.9564,-0.9501,-0.9602,-0.9663,-0.9669,-0.9699,-0.9701,-0.9702,-0.9795,-0.9797,-0.9799,-0.9801,-0.9897,-0.9899,-0.9902,-0.9879,0,0,-0.9909,-0.991,0,0,0,0,0,0,0,0,-0.9561,-0.9568,-0.9653,-0.9659,-0.9666,-0.9737,-0.97,-0.9761,-0.9795,-0.9747,-0.9799,-0.9802,-0.9843,-0.985,-0.9864,-0.9884,-0.9888,-0.9909,-0.991,-0.9911,-0.9912,0,0,0,0,0,0,0,-0.9556,-0.9565,-0.9641,-0.9654,-0.9662,-0.9686,-0.9697,-0.9712,-0.9784,-0.9752,-0.9759,-0.9769,-0.9847,-0.9862,-0.9867,-0.9889,-0.9909,-0.9911,-0.9912,-0.9913,-0.9895,-0.9893,0,0,0,0,0,0,-0.9542,-0.956,-0.9638,-0.9644,-0.9617,-0.9686,-0.9699,-0.9713,-0.9784,-0.9797,-0.9767,-0.9773,-0.9857,-0.9865,-0.9871,-0.9849,-0.9911,-0.9913,-0.9914,-0.9896,-0.9894,-0.9892,0,0,0,0,0,0,-0.954,-0.9548,-0.9634,-0.9604,-0.9617,-0.9686,-0.9701,-0.9714,-0.9728,-0.9796,-0.9809,-0.9769,-0.9859,-0.9868,-0.9876,-0.9853,-0.9914,-0.9916,-0.9899,-0.9896,-0.9893,-0.9804,0,0,0,0,0,0,-0.9536,-0.9547,-0.9539,-0.9603,-0.9618,-0.9637,-0.9699,-0.9714,-0.9732,-0.974,-0.9801,-0.9813,-0.9861,-0.9872,-0.9878,-0.9858,-0.9918,-0.9901,-0.9897,-0.9894,-0.9809,-0.9798,-0.9789,0,0,0,0,0,-0.9532,-0.951,-0.9538,-0.9547,-0.9609,-0.9635,-0.9644,-0.97,-0.973,-0.9722,-0.9766,-0.9811,-0.9855,-0.9872,-0.988,-0.986,-0.9903,-0.9898,-0.9894,-0.9813,-0.98,-0.9789,0,0,0,0,0,0,-0.944,-0.9519,-0.9551,-0.9549,-0.9585,-0.9651,-0.9643,-0.9684,-0.9713,-0.9719,-0.9788,-0.9801,-0.9801,-0.9832,-0.9849,-0.9841,-0.9885,-0.9882,-0.9821,-0.9809,-0.9799,-0.9791,-0.992,0,0,0,0,0,-0.942,-0.9435,-0.9503,-0.9494,-0.951,-0.9573,-0.9587,-0.9627,-0.9667,-0.9683,-0.9727,-0.9764,-0.9787,-0.98,-0.9824,-0.9814,-0.9829,-0.9804,-0.9794,-0.9785,-0.9782,-0.9778,-0.9768,-0.9879,-0.9879,-0.9879,0,0,-0.9378,-0.9423,-0.9428,-0.9477,-0.9509,-0.9523,-0.9586,-0.9598,-0.9608,-0.9685,-0.9695,-0.9729,-0.9775,-0.9773,-0.9775,-0.9799,-0.9755,-0.978,-0.9773,-0.9774,-0.9773,-0.9763,-0.9753,-0.9876,-0.9876,-0.9877,0,0,-0.9308,-0.9343,-0.934,-0.9371,-0.942,-0.9462,-0.9461,-0.9521,-0.9547,-0.9558,-0.9616,-0.963,-0.9667,-0.9697,-0.9717,-0.9659,-0.9701,-0.9665,-0.9612,-0.9608,-0.9599,-0.9592,-0.957,-0.9562,-0.9661,-0.9661,-0.9661,0,-0.9249,-0.9272,-0.9333,-0.9341,-0.936,-0.9431,-0.9427,-0.9455,-0.9509,-0.9521,-0.9547,-0.9595,-0.9631,-0.9638,-0.9623,-0.9638,-0.9638,-0.9658,-0.9596,-0.9589,-0.9583,-0.9563,-0.9555,-0.9656,-0.9657,-0.9658,-0.9658,0,-0.9197,-0.9211,-0.9203,-0.9253,-0.9272,-0.9274,-0.9335,-0.9347,-0.9386,-0.9425,-0.9436,-0.9482,-0.9516,-0.9521,-0.9559,-0.9533,-0.9546,-0.9583,-0.9628,-0.9566,-0.9549,-0.9542,-0.965,-0.9651,-0.9653,-0.9654,0,0,-0.907,-0.9154,-0.915,-0.9173,-0.9232,-0.9245,-0.9251,-0.9285,-0.9293,-0.9328,-0.9334,-0.9364,-0.9399,-0.9422,-0.9464,-0.946,-0.941,-0.9498,-0.95,-0.9479,-0.9383,-0.9354,-0.9345,-0.9439,-0.9438,-0.9437,-0.9379,0,-0.9009,-0.9023,-0.9078,-0.9076,-0.909,-0.9157,-0.9162,-0.9199,-0.9236,-0.9253,-0.9295,-0.9315,-0.9359,-0.9373,-0.9373,-0.9416,-0.9392,-0.9421,-0.9445,-0.9445,-0.943,-0.9336,-0.9305,-0.9248,-0.9373,-0.9372,-0.9371,0,-0.894,-0.897,-0.8968,-0.9027,-0.9035,-0.9038,-0.9074,-0.909,-0.9133,-0.916,-0.9186,-0.9233,-0.9242,-0.9285,-0.9299,-0.9318,-0.9332,-0.9354,-0.9354,-0.9357,-0.9403,-0.9335,-0.9232,-0.9222,-0.9361,-0.9362,-0.9362,0,-0.8846,-0.8887,-0.8892,-0.891,-0.8978,-0.8979,-0.9007,-0.9052,-0.9069,-0.91,-0.9112,-0.9144,-0.9161,-0.9184,-0.9239,-0.9265,-0.9246,-0.9294,-0.9269,-0.9267,-0.9261,-0.926,-0.9156,-0.9271,-0.9271,-0.9271,-0.9271,0,-0.8772,-0.8768,-0.885,-0.8853,-0.8851,-0.8914,-0.8911,-0.8946,-0.8985,-0.8995,-0.9056,-0.9065,-0.9137,-0.9153,-0.9196,-0.9201,-0.9209,-0.9231,-0.9242,-0.9224,-0.9221,-0.9233,-0.9238,-0.9269,-0.9269,-0.927,-0.927,0,-0.8667,-0.8722,-0.8731,-0.8795,-0.8811,-0.8806,-0.8862,-0.8867,-0.8908,-0.892,-0.8927,-0.8991,-0.9014,-0.9071,-0.9109,-0.9138,-0.913,-0.9152,-0.9116,-0.9122,-0.9093,-0.9095,-0.8993,-0.8982,-0.9104,-0.9102,-0.9101,0,-0.8615,-0.8614,-0.8678,-0.8689,-0.8715,-0.8732,-0.875,-0.8813,-0.8828,-0.8877,-0.8876,-0.8904,-0.8929,-0.8963,-0.9013,-0.9042,-0.9064,-0.9026,-0.9069,-0.9051,-0.9062,-0.9061,-0.9061,-0.9016,-0.9015,-0.9013,-0.9012,0,-0.8517,-0.8544,-0.8567,-0.8599,-0.8618,-0.8646,-0.8678,-0.8684,-0.8755,-0.8769,-0.8793,-0.8813,-0.8851,-0.8878,-0.8915,-0.8945,-0.899,-0.8999,-0.8994,-0.8976,-0.8954,-0.8965,-0.9089,-0.9,-0.9002,-0.9002,-0.9003,-0.9004,-0.8437,-0.8438,-0.8483,-0.8506,-0.8537,-0.8565,-0.8573,-0.8615,-0.8636,-0.8672,-0.8708,-0.8728,-0.8771,-0.8826,-0.8853,-0.8869,-0.8893,-0.8886,-0.8884,-0.8882,-0.8873,-0.8952,-0.8876,-0.8877,-0.8877,-0.8878,-0.8878,0,-0.8341,-0.8373,-0.8394,-0.8436,-0.8454,-0.8495,-0.8533,-0.8545,-0.8562,-0.8598,-0.8622,-0.8649,-0.8676,-0.8728,-0.8758,-0.8762,-0.8783,-0.8768,-0.8767,-0.8773,-0.8851,-0.8852,-0.875,-0.875,-0.875,-0.875,-0.875,-0.875,-0.8293,-0.8298,-0.833,-0.8351,-0.8384,-0.8403,-0.8421,-0.8447,-0.8477,-0.8504,-0.8526,-0.856,-0.8603,-0.8637,-0.8663,-0.8678,-0.8686,-0.8663,-0.8684,-0.8756,-0.8768,-0.8779,-0.878,-0.8665,-0.8665,-0.8605,-0.8605,-0.8604]}]]